START_TIME,STEP,MOV.,M34,t_acc.,L5,t_acc.,L18,t_acc.,L14,t_acc.
1979-07-15 21:00:24.900 ,0,0,0.,12.0,0.,12.0,0.,12.0,0.,12.0
1979-07-15 21:00:36.900 ,0,0,0.,12.0,0.,12.0,0.,12.0,0.,12.0
1979-07-15 21:00:48.900 ,0,1,0.,12.0,0.,12.0,0.,12.0,0.,12.0
1979-07-15 21:01:00.900 ,0,1,0.,12.0,0.,12.0,0.,12.0,0.,12.0
1979-07-15 21:01:12.900 ,0,0,0.,12.0,0.,12.0,0.,12.0,0.,12.0
1979-07-15 21:01:24.900 ,0,0,0.,12.0,0.,12.0,0.,12.0,0.,12.0
1979-07-15 21:01:36.900 ,1,1,0.,12.0,0.,12.0,0.,12.0,0.,12.0
1979-07-15 21:01:48.900 ,1,1,0.,12.0,0.,12.0,0.,12.0,0.,12.0
1979-07-15 21:02:00.900 ,1,0,0.,12.0,0.,12.0,0.,12.0,0.,12.0
1979-07-15 21:02:12.900 ,1,0,0.,12.0,0.,12.0,0.,12.0,0.,12.0
1979-07-15 21:02:24.900 ,2,1,0.,12.0,0.,12.0,0.,12.0,0.,12.0
1979-07-15 21:02:36.900 ,2,1,0.,12.0,0.,12.0,0.,12.0,0.,12.0
1979-07-15 21:02:48.900 ,2,0,0.,12.0,0.,12.0,0.,12.0,0.,12.0
1979-07-15 21:03:00.900 ,2,0,0.,12.0,0.,12.0,0.,12.0,0.,12.0
1979-07-15 21:03:12.900 ,3,1,0.,12.0,0.,12.0,0.,12.0,0.,12.0
1979-07-15 21:03:24.900 ,3,1,0.,12.0,0.,12.0,0.,12.0,0.,12.0
1979-07-15 21:03:36.900 ,3,0,0.,12.0,0.,12.0,0.,12.0,0.,12.0
1979-07-15 21:03:48.900 ,3,0,0.,12.0,0.,12.0,0.,12.0,0.,12.0
1979-07-15 21:04:00.900 ,4,1,0.,12.0,0.,12.0,0.,12.0,0.,12.0
1979-07-15 21:04:12.900 ,4,1,0.,12.0,0.,12.0,0.,12.0,0.,12.0
1979-07-15 21:04:24.900 ,4,0,0.,12.0,0.,12.0,0.,12.0,0.,12.0
1979-07-15 21:04:36.900 ,4,0,0.,12.0,0.,12.0,0.,12.0,0.,12.0
1979-07-15 21:04:48.900 ,5,1,0.,12.0,0.,12.0,0.,12.0,0.,12.0
1979-07-15 21:05:00.900 ,5,1,0.,12.0,0.,12.0,0.,12.0,0.,12.0
1979-07-15 21:05:12.900 ,5,0,0.,12.0,0.,12.0,0.,12.0,0.,12.0
1979-07-15 21:05:24.900 ,5,0,0.,12.0,0.,12.0,0.,12.0,0.,12.0
1979-07-15 21:05:36.900 ,6,1,0.,12.0,0.,12.0,0.,12.0,0.,12.0
1979-07-15 21:05:48.900 ,6,1,0.,12.0,0.,12.0,0.,12.0,0.,12.0
1979-07-15 21:06:00.900 ,6,0,0.,12.0,0.,12.0,0.,12.0,0.,12.0
1979-07-15 21:06:12.900 ,6,0,0.,12.0,0.,12.0,0.,12.0,0.,12.0
1979-07-15 21:06:24.900 ,7,0,0.,12.0,0.,12.0,0.,12.0,0.,12.0
1979-07-15 21:06:36.900 ,7,0,0.,12.0,0.,12.0,0.,12.0,0.,12.0
1979-07-15 21:06:48.900 ,7,0,0.,12.0,0.,12.0,0.,12.0,0.,12.0
1979-07-15 21:07:00.900 ,7,0,0.,12.0,0.,12.0,0.,12.0,0.,12.0
1979-07-15 21:07:12.900 ,4,1,0.,12.0,0.,12.0,0.,12.0,0.,12.0
1979-07-15 21:07:24.900 ,4,1,0.,12.0,0.,12.0,0.,12.0,0.,12.0
1979-07-15 21:07:36.900 ,0,1,0.,12.0,0.,12.0,0.,12.0,0.,12.0
1979-07-15 21:07:48.900 ,0,1,0.,12.0,0.,12.0,0.,12.0,0.,12.0
1979-07-15 21:08:00.900 ,3,1,0.,12.0,0.,12.0,0.,12.0,0.,12.0
1979-07-15 21:08:12.900 ,3,1,0.,12.0,0.,12.0,0.,12.0,0.,12.0
1979-07-15 21:08:24.900 ,7,1,0.,12.0,0.,12.0,0.,12.0,0.,12.0
1979-07-15 21:08:36.900 ,7,1,0.,12.0,0.,12.0,0.,12.0,0.,12.0
1979-07-15 21:08:48.900 ,4,1,0.,12.0,0.,12.0,0.,12.0,0.,12.0
1979-07-15 21:09:00.900 ,4,1,0.,12.0,0.,12.0,0.,12.0,0.,12.0
1979-07-15 21:09:12.900 ,0,1,0.,12.0,0.,12.0,0.,12.0,0.,12.0
1979-07-15 21:09:24.900 ,0,1,0.,12.0,0.,12.0,0.,12.0,0.,12.0
1979-07-15 21:09:36.900 ,3,1,0.,12.0,0.,12.0,0.,12.0,0.,12.0
1979-07-15 21:09:48.900 ,3,1,0.,12.0,0.,12.0,0.,12.0,0.,12.0
1979-07-15 21:10:00.900 ,7,1,0.,12.0,0.,12.0,0.,12.0,0.,12.0
1979-07-15 21:10:12.900 ,7,1,0.,12.0,0.,12.0,0.,12.0,0.,12.0
1979-07-15 21:10:24.900 ,4,1,0.,12.0,0.,12.0,0.,12.0,0.,12.0
1979-07-15 21:10:36.900 ,4,1,0.,12.0,0.,12.0,0.,12.0,0.,12.0
1979-07-15 21:10:48.900 ,0,1,0.,12.0,0.,12.0,0.,12.0,0.,12.0
1979-07-15 21:11:00.900 ,0,1,0.,12.0,0.,12.0,0.,12.0,0.,12.0
1979-07-15 21:11:12.900 ,3,1,0.,12.0,0.,12.0,0.,12.0,0.,12.0
1979-07-15 21:11:24.900 ,3,1,0.,12.0,0.,12.0,0.,12.0,0.,12.0
1979-07-15 21:11:36.900 ,7,1,0.,12.0,0.,12.0,0.,12.0,0.,12.0
1979-07-15 21:11:48.900 ,7,1,0.,12.0,0.,12.0,0.,12.0,0.,12.0
1979-07-15 21:12:00.900 ,4,1,0.,12.0,0.,12.0,0.,12.0,0.,12.0
1979-07-15 21:12:12.900 ,4,1,0.,12.0,0.,12.0,0.,12.0,0.,12.0
1979-07-15 21:12:24.900 ,0,1,0.,12.0,0.,12.0,0.,12.0,0.,12.0
1979-07-15 21:12:36.900 ,0,1,0.,12.0,0.,12.0,0.,12.0,0.,12.0
1979-07-15 21:12:48.900 ,3,1,0.,12.0,0.,12.0,0.,12.0,0.,12.0
1979-07-15 21:13:00.900 ,3,1,0.,12.0,0.,12.0,0.,12.0,0.,12.0
1979-07-15 21:13:12.900 ,7,1,0.,12.0,0.,12.0,0.,12.0,0.,12.0
1979-07-15 21:13:24.900 ,7,1,0.,12.0,0.,12.0,0.,12.0,0.,12.0
1979-07-15 21:13:36.900 ,4,1,0.,12.0,0.,12.0,0.,12.0,0.,12.0
1979-07-15 21:13:48.900 ,4,1,0.,12.0,0.,12.0,0.,12.0,0.,12.0
1979-07-15 21:14:00.900 ,0,1,0.,12.0,0.,12.0,0.,12.0,0.,12.0
1979-07-15 21:14:12.900 ,0,1,0.,12.0,0.,12.0,0.,12.0,0.,12.0
1979-07-15 21:14:24.900 ,3,1,0.,12.0,0.,12.0,0.,12.0,0.,12.0
1979-07-15 21:14:36.900 ,3,1,0.,12.0,0.,12.0,0.,12.0,0.,12.0
1979-07-15 21:14:48.900 ,7,1,0.,12.0,0.,12.0,0.,12.0,0.,12.0
1979-07-15 21:15:00.900 ,7,1,0.,12.0,0.,12.0,0.,12.0,0.,12.0
1979-07-15 21:15:12.900 ,4,1,0.,12.0,0.,12.0,0.,12.0,0.,12.0
1979-07-15 21:15:24.900 ,4,1,0.,12.0,0.,12.0,0.,12.0,0.,12.0
1979-07-15 21:15:36.900 ,0,1,0.,12.0,0.,12.0,0.,12.0,0.,12.0
1979-07-15 21:15:48.900 ,0,1,0.,12.0,0.,12.0,0.,12.0,0.,12.0
1979-07-15 21:16:00.900 ,3,1,0.,12.0,0.,12.0,0.,12.0,0.,12.0
1979-07-15 21:16:12.900 ,3,1,0.,12.0,0.,12.0,0.,12.0,0.,12.0
1979-07-15 21:16:24.900 ,7,1,0.,12.0,0.,12.0,0.,12.0,0.,12.0
1979-07-15 21:16:36.900 ,7,1,0.,12.0,0.,12.0,0.,12.0,0.,12.0
1979-07-15 21:16:48.900 ,4,1,0.,12.0,0.,12.0,0.,12.0,0.,12.0
1979-07-15 21:17:00.900 ,4,1,0.,12.0,0.,12.0,0.,12.0,0.,12.0
1979-07-15 21:17:12.900 ,0,1,0.,12.0,0.,12.0,0.,12.0,0.,12.0
1979-07-15 21:17:24.900 ,0,1,0.,12.0,0.,12.0,0.,12.0,0.,12.0
1979-07-15 21:17:36.900 ,0,0,0.,12.0,0.,12.0,0.,12.0,0.,12.0
1979-07-15 21:17:48.900 ,0,0,0.,12.0,0.,12.0,0.,12.0,0.,12.0
1979-07-15 21:18:00.900 ,0,0,0.,12.0,0.,12.0,0.,12.0,0.,12.0
1979-07-15 21:18:12.900 ,0,0,0.,12.0,0.,12.0,0.,12.0,0.,12.0
1979-07-15 21:18:24.900 ,5,1,0.,12.0,0.,12.0,0.,12.0,0.,12.0
1979-07-15 21:18:36.900 ,5,1,0.,12.0,0.,12.0,0.,12.0,0.,12.0
1979-07-15 21:18:48.900 ,5,0,0.,12.0,0.,12.0,0.,12.0,0.,12.0
1979-07-15 21:19:00.900 ,5,0,0.,12.0,0.,12.0,0.,12.0,0.,12.0
1979-07-15 21:19:12.900 ,4,1,0.,12.0,0.,12.0,0.,12.0,0.,12.0
1979-07-15 21:19:24.900 ,4,1,0.,12.0,0.,12.0,0.,12.0,0.,12.0
1979-07-15 21:19:36.900 ,4,0,0.,12.0,0.,12.0,0.,12.0,0.,12.0
1979-07-15 21:19:48.900 ,4,0,0.,12.0,0.,12.0,0.,12.0,0.,12.0
1979-07-15 21:20:00.900 ,3,1,0.,12.0,0.,12.0,0.,12.0,0.,12.0
1979-07-15 21:20:12.900 ,3,1,0.,12.0,0.,12.0,0.,12.0,0.,12.0
1979-07-15 21:20:24.900 ,3,0,0.,12.0,0.,12.0,0.,12.0,0.,12.0
1979-07-15 21:20:36.900 ,3,0,0.,12.0,0.,12.0,0.,12.0,0.,12.0
1979-07-15 21:20:48.900 ,2,1,0.,12.0,0.,12.0,0.,12.0,0.,12.0
1979-07-15 21:21:00.900 ,2,1,0.,12.0,0.,12.0,0.,12.0,0.,12.0
1979-07-15 21:21:12.900 ,2,0,0.,12.0,0.,12.0,0.,12.0,0.,12.0
1979-07-15 21:21:24.900 ,2,0,0.,12.0,0.,12.0,0.,12.0,0.,12.0
1979-07-15 21:21:36.900 ,1,1,1.,12.0,0.,12.0,0.,12.0,0.,12.0
1979-07-15 21:21:48.900 ,1,1,0.,12.0,0.,12.0,0.,12.0,0.,12.0
1979-07-15 21:22:00.900 ,1,0,0.,12.0,0.,12.0,0.,12.0,0.,12.0
1979-07-15 21:22:12.900 ,1,0,0.,12.0,0.,12.0,0.,12.0,0.,12.0
1979-07-15 21:22:24.900 ,0,1,0.,12.0,0.,12.0,0.,12.0,0.,12.0
1979-07-15 21:22:36.900 ,0,1,0.,12.0,0.,12.0,0.,12.0,0.,12.0
1979-07-15 21:22:48.900 ,0,0,0.,12.0,0.,12.0,0.,12.0,0.,12.0
1979-07-15 21:23:00.900 ,0,0,0.,12.0,0.,12.0,0.,12.0,0.,12.0
1979-07-15 21:23:12.900 ,0,1,0.,12.0,0.,12.0,0.,12.0,0.,12.0
1979-07-15 21:23:24.900 ,0,1,0.,12.0,0.,12.0,0.,12.0,0.,12.0
1979-07-15 21:23:36.900 ,0,0,0.,12.0,0.,12.0,0.,12.0,0.,12.0
1979-07-15 21:23:48.900 ,0,0,0.,12.0,0.,12.0,0.,12.0,0.,12.0
1979-07-15 21:24:00.900 ,1,1,0.,12.0,0.,12.0,0.,12.0,0.,12.0
1979-07-15 21:24:12.900 ,1,1,0.,12.0,0.,12.0,0.,12.0,0.,12.0
1979-07-15 21:24:24.900 ,1,0,0.,12.0,0.,12.0,0.,12.0,0.,12.0
1979-07-15 21:24:36.900 ,1,0,0.,12.0,0.,12.0,0.,12.0,0.,12.0
1979-07-15 21:24:48.900 ,2,1,0.,12.0,0.,12.0,0.,12.0,0.,12.0
1979-07-15 21:25:00.900 ,2,1,0.,12.0,0.,12.0,0.,12.0,0.,12.0
1979-07-15 21:25:12.900 ,2,0,0.,12.0,0.,12.0,0.,12.0,0.,12.0
1979-07-15 21:25:24.900 ,2,0,0.,12.0,0.,12.0,0.,12.0,0.,12.0
1979-07-15 21:25:36.900 ,3,1,0.,12.0,0.,12.0,0.,12.0,0.,12.0
1979-07-15 21:25:48.900 ,3,1,0.,12.0,0.,12.0,0.,12.0,0.,12.0
1979-07-15 21:26:00.900 ,3,0,0.,12.0,0.,12.0,0.,12.0,0.,12.0
1979-07-15 21:26:12.900 ,3,0,0.,12.0,0.,12.0,0.,12.0,0.,12.0
1979-07-15 21:26:24.900 ,4,1,0.,12.0,0.,12.0,0.,12.0,0.,12.0
1979-07-15 21:26:36.900 ,4,1,0.,12.0,0.,12.0,0.,12.0,0.,12.0
1979-07-15 21:26:48.900 ,4,0,0.,12.0,0.,12.0,0.,12.0,0.,12.0
1979-07-15 21:27:00.900 ,4,0,0.,12.0,0.,12.0,0.,12.0,0.,12.0
1979-07-15 21:27:12.900 ,5,1,0.,12.0,0.,12.0,0.,12.0,0.,12.0
1979-07-15 21:27:24.900 ,5,1,0.,12.0,0.,12.0,0.,12.0,0.,12.0
1979-07-15 21:27:36.900 ,5,0,0.,12.0,0.,12.0,0.,12.0,0.,12.0
1979-07-15 21:27:48.900 ,5,0,0.,12.0,0.,12.0,0.,12.0,0.,12.0
1979-07-15 21:28:00.900 ,6,1,0.,12.0,0.,12.0,0.,12.0,0.,12.0
1979-07-15 21:28:12.900 ,6,1,0.,12.0,0.,12.0,0.,12.0,0.,12.0
1979-07-15 21:28:24.900 ,6,0,0.,12.0,0.,12.0,0.,12.0,0.,12.0
1979-07-15 21:28:36.900 ,6,0,0.,12.0,0.,12.0,0.,12.0,0.,12.0
1979-07-15 21:28:48.900 ,7,1,0.,12.0,0.,12.0,0.,12.0,0.,12.0
1979-07-15 21:29:00.900 ,7,1,0.,12.0,0.,12.0,0.,12.0,0.,12.0
1979-07-15 21:29:12.900 ,7,0,0.,12.0,0.,12.0,0.,12.0,0.,12.0
1979-07-15 21:29:24.900 ,7,0,0.,12.0,0.,12.0,0.,12.0,0.,12.0
1979-07-15 21:29:36.900 ,7,1,0.,12.0,0.,12.0,0.,12.0,0.,12.0
1979-07-15 21:29:48.900 ,7,1,0.,12.0,0.,12.0,0.,12.0,0.,12.0
1979-07-15 21:30:00.900 ,7,0,0.,12.0,0.,12.0,0.,12.0,0.,12.0
1979-07-15 21:30:12.900 ,7,0,0.,12.0,0.,12.0,0.,12.0,0.,12.0
1979-07-15 21:30:24.900 ,6,1,0.,12.0,0.,12.0,0.,12.0,0.,12.0
1979-07-15 21:30:36.900 ,6,1,0.,12.0,0.,12.0,0.,12.0,0.,12.0
1979-07-15 21:30:48.900 ,6,0,0.,12.0,0.,12.0,0.,12.0,0.,12.0
1979-07-15 21:31:00.900 ,6,0,0.,12.0,0.,12.0,0.,12.0,0.,12.0
1979-07-15 21:31:12.900 ,5,1,0.,12.0,0.,12.0,0.,12.0,0.,12.0
1979-07-15 21:31:24.900 ,5,1,0.,12.0,0.,12.0,0.,12.0,0.,12.0
1979-07-15 21:31:36.900 ,5,0,0.,12.0,0.,12.0,0.,12.0,0.,12.0
1979-07-15 21:31:48.900 ,5,0,0.,12.0,0.,12.0,0.,12.0,0.,12.0
1979-07-15 21:32:00.900 ,4,1,0.,12.0,0.,12.0,0.,12.0,0.,12.0
1979-07-15 21:32:12.900 ,4,1,0.,12.0,0.,12.0,0.,12.0,0.,12.0
1979-07-15 21:32:24.900 ,4,0,0.,12.0,0.,12.0,0.,12.0,0.,12.0
1979-07-15 21:32:36.900 ,4,0,0.,12.0,0.,12.0,0.,12.0,0.,12.0
1979-07-15 21:32:48.900 ,3,1,0.,12.0,0.,12.0,0.,12.0,0.,12.0
1979-07-15 21:33:00.900 ,3,1,0.,12.0,0.,12.0,0.,12.0,0.,12.0
1979-07-15 21:33:12.900 ,3,0,0.,12.0,0.,12.0,0.,12.0,0.,12.0
1979-07-15 21:33:24.900 ,3,0,0.,12.0,0.,12.0,0.,12.0,0.,12.0
1979-07-15 21:33:36.900 ,2,1,0.,12.0,0.,12.0,0.,12.0,0.,12.0
1979-07-15 21:33:48.900 ,2,1,0.,12.0,0.,12.0,0.,12.0,0.,12.0
1979-07-15 21:34:00.900 ,2,0,0.,12.0,0.,12.0,0.,12.0,0.,12.0
1979-07-15 21:34:12.900 ,2,0,0.,12.0,0.,12.0,0.,12.0,0.,12.0
1979-07-15 21:34:24.900 ,1,1,0.,12.0,0.,12.0,0.,12.0,0.,12.0
1979-07-15 21:34:36.900 ,1,1,0.,12.0,0.,12.0,0.,12.0,0.,12.0
1979-07-15 21:34:48.900 ,1,0,0.,12.0,0.,12.0,0.,12.0,0.,12.0
1979-07-15 21:35:00.900 ,1,0,0.,12.0,0.,12.0,0.,12.0,0.,12.0
1979-07-15 21:35:12.900 ,0,1,0.,12.0,0.,12.0,0.,12.0,0.,12.0
1979-07-15 21:35:24.900 ,0,1,0.,12.0,0.,12.0,0.,12.0,0.,12.0
1979-07-15 21:35:36.900 ,0,0,0.,12.0,0.,12.0,0.,12.0,0.,12.0
1979-07-15 21:35:48.900 ,0,0,0.,12.0,0.,12.0,0.,12.0,0.,12.0
1979-07-15 21:36:00.900 ,0,1,0.,12.0,0.,12.0,0.,12.0,0.,12.0
1979-07-15 21:36:12.900 ,0,1,0.,12.0,0.,12.0,0.,12.0,0.,12.0
1979-07-15 21:36:24.900 ,0,0,1.,12.0,0.,12.0,0.,12.0,0.,12.0
1979-07-15 21:36:36.900 ,0,0,1.,12.0,0.,12.0,0.,12.0,0.,12.0
1979-07-15 21:36:48.900 ,1,1,0.,12.0,0.,12.0,0.,12.0,0.,12.0
1979-07-15 21:37:00.900 ,1,1,0.,12.0,0.,12.0,0.,12.0,0.,12.0
1979-07-15 21:37:12.900 ,1,0,0.,12.0,0.,12.0,0.,12.0,0.,12.0
1979-07-15 21:37:24.900 ,1,0,0.,12.0,0.,12.0,0.,12.0,0.,12.0
1979-07-15 21:37:36.900 ,2,1,0.,12.0,0.,12.0,0.,12.0,0.,12.0
1979-07-15 21:37:48.900 ,2,1,0.,12.0,0.,12.0,0.,12.0,0.,12.0
1979-07-15 21:38:00.900 ,2,0,0.,12.0,0.,12.0,0.,12.0,0.,12.0
1979-07-15 21:38:12.900 ,2,0,0.,12.0,0.,12.0,0.,12.0,0.,12.0
1979-07-15 21:38:24.900 ,3,1,0.,12.0,0.,12.0,0.,12.0,0.,12.0
1979-07-15 21:38:36.900 ,3,1,0.,12.0,0.,12.0,0.,12.0,0.,12.0
1979-07-15 21:38:48.900 ,3,0,0.,12.0,0.,12.0,0.,12.0,0.,12.0
1979-07-15 21:39:00.900 ,3,0,0.,12.0,0.,12.0,0.,12.0,0.,12.0
1979-07-15 21:39:12.900 ,4,1,0.,12.0,0.,12.0,0.,12.0,0.,12.0
1979-07-15 21:39:24.900 ,4,1,0.,12.0,0.,12.0,0.,12.0,0.,12.0
1979-07-15 21:39:36.900 ,4,0,0.,12.0,0.,12.0,0.,12.0,0.,12.0
1979-07-15 21:39:48.900 ,4,0,0.,12.0,0.,12.0,0.,12.0,0.,12.0
1979-07-15 21:40:00.900 ,5,1,1.,12.0,0.,12.0,0.,12.0,0.,12.0
1979-07-15 21:40:12.900 ,5,1,0.,12.0,0.,12.0,0.,12.0,0.,12.0
1979-07-15 21:40:24.900 ,5,0,0.,12.0,0.,12.0,0.,12.0,0.,12.0
1979-07-15 21:40:36.900 ,5,0,0.,12.0,0.,12.0,0.,12.0,0.,12.0
1979-07-15 21:40:48.900 ,6,1,0.,12.0,0.,12.0,0.,12.0,0.,12.0
1979-07-15 21:41:00.900 ,6,1,0.,12.0,0.,12.0,0.,12.0,0.,12.0
1979-07-15 21:41:12.900 ,6,0,0.,12.0,0.,12.0,0.,12.0,0.,12.0
1979-07-15 21:41:24.900 ,6,0,0.,12.0,0.,12.0,0.,12.0,0.,12.0
1979-07-15 21:41:36.900 ,7,1,0.,12.0,0.,12.0,0.,12.0,0.,12.0
1979-07-15 21:41:48.900 ,7,1,0.,12.0,0.,12.0,0.,12.0,0.,12.0
1979-07-15 21:42:00.900 ,7,0,0.,12.0,0.,12.0,0.,12.0,0.,12.0
1979-07-15 21:42:12.900 ,7,0,0.,12.0,0.,12.0,0.,12.0,0.,12.0
1979-07-15 21:42:24.900 ,7,1,0.,12.0,0.,12.0,0.,12.0,0.,12.0
1979-07-15 21:42:36.900 ,7,1,0.,12.0,0.,12.0,0.,12.0,0.,12.0
1979-07-15 21:42:48.900 ,7,0,0.,12.0,0.,12.0,0.,12.0,0.,12.0
1979-07-15 21:43:00.900 ,7,0,0.,12.0,0.,12.0,0.,12.0,0.,12.0
1979-07-15 21:43:12.900 ,6,1,0.,12.0,0.,12.0,0.,12.0,0.,12.0
1979-07-15 21:43:24.900 ,6,1,0.,12.0,0.,12.0,0.,12.0,0.,12.0
1979-07-15 21:43:36.900 ,6,0,0.,12.0,0.,12.0,0.,12.0,0.,12.0
1979-07-15 21:43:48.900 ,6,0,0.,12.0,0.,12.0,0.,12.0,0.,12.0
1979-07-15 21:44:00.900 ,5,1,0.,12.0,0.,12.0,0.,12.0,0.,12.0
1979-07-15 21:44:12.900 ,5,1,0.,12.0,0.,12.0,0.,12.0,0.,12.0
1979-07-15 21:44:24.900 ,5,0,0.,12.0,0.,12.0,0.,12.0,0.,12.0
1979-07-15 21:44:36.900 ,5,0,0.,12.0,0.,12.0,0.,12.0,0.,12.0
1979-07-15 21:44:48.900 ,4,1,0.,12.0,0.,12.0,0.,12.0,0.,12.0
1979-07-15 21:45:00.900 ,4,1,0.,12.0,0.,12.0,0.,12.0,0.,12.0
1979-07-15 21:45:12.900 ,4,0,0.,12.0,0.,12.0,0.,12.0,0.,12.0
1979-07-15 21:45:24.900 ,4,0,0.,12.0,0.,12.0,0.,12.0,0.,12.0
1979-07-15 21:45:36.900 ,3,1,0.,12.0,0.,12.0,0.,12.0,0.,12.0
1979-07-15 21:45:48.900 ,3,1,0.,12.0,0.,12.0,0.,12.0,0.,12.0
1979-07-15 21:46:00.900 ,3,0,0.,12.0,0.,12.0,0.,12.0,0.,12.0
1979-07-15 21:46:12.900 ,3,0,0.,12.0,0.,12.0,0.,12.0,0.,12.0
1979-07-15 21:46:24.900 ,2,1,0.,12.0,0.,12.0,0.,12.0,0.,12.0
1979-07-15 21:46:36.900 ,2,1,0.,12.0,0.,12.0,0.,12.0,0.,12.0
1979-07-15 21:46:48.900 ,2,0,0.,12.0,0.,12.0,0.,12.0,0.,12.0
1979-07-15 21:47:00.900 ,2,0,0.,12.0,0.,12.0,0.,12.0,0.,12.0
1979-07-15 21:47:12.900 ,1,1,0.,12.0,0.,12.0,0.,12.0,0.,12.0
1979-07-15 21:47:24.900 ,1,1,0.,12.0,0.,12.0,0.,12.0,0.,12.0
1979-07-15 21:47:36.900 ,1,0,0.,12.0,0.,12.0,0.,12.0,0.,12.0
1979-07-15 21:47:48.900 ,1,0,0.,12.0,0.,12.0,0.,12.0,0.,12.0
1979-07-15 21:48:00.900 ,0,1,0.,12.0,0.,12.0,0.,12.0,0.,12.0
1979-07-15 21:48:12.900 ,0,1,0.,12.0,0.,12.0,0.,12.0,0.,12.0
1979-07-15 21:48:24.900 ,0,0,0.,12.0,0.,12.0,0.,12.0,0.,12.0
1979-07-15 21:48:36.900 ,0,0,0.,12.0,0.,12.0,0.,12.0,0.,12.0
1979-07-15 21:48:48.900 ,0,1,0.,12.0,0.,12.0,0.,12.0,0.,12.0
1979-07-15 21:49:00.900 ,0,1,0.,12.0,0.,12.0,0.,12.0,0.,12.0
1979-07-15 21:49:12.900 ,0,0,0.,12.0,0.,12.0,0.,12.0,0.,12.0
1979-07-15 21:49:24.900 ,0,0,0.,12.0,0.,12.0,0.,12.0,0.,12.0
1979-07-15 21:49:36.900 ,1,1,0.,12.0,0.,12.0,0.,12.0,0.,12.0
1979-07-15 21:49:48.900 ,1,1,0.,12.0,0.,12.0,0.,12.0,0.,12.0
1979-07-15 21:50:00.900 ,1,0,0.,12.0,0.,12.0,0.,12.0,0.,12.0
1979-07-15 21:50:12.900 ,1,0,0.,12.0,0.,12.0,0.,12.0,0.,12.0
1979-07-15 21:50:24.900 ,2,1,0.,12.0,0.,12.0,0.,12.0,0.,12.0
1979-07-15 21:50:36.900 ,2,1,0.,12.0,0.,12.0,0.,12.0,0.,12.0
1979-07-15 21:50:48.900 ,2,0,0.,12.0,0.,12.0,0.,12.0,0.,12.0
1979-07-15 21:51:00.900 ,2,0,0.,12.0,0.,12.0,0.,12.0,0.,12.0
1979-07-15 21:51:12.900 ,3,1,0.,12.0,0.,12.0,0.,12.0,0.,12.0
1979-07-15 21:51:24.900 ,3,1,0.,12.0,0.,12.0,0.,12.0,0.,12.0
1979-07-15 21:51:36.900 ,3,0,0.,12.0,0.,12.0,0.,12.0,0.,12.0
1979-07-15 21:51:48.900 ,3,0,0.,12.0,0.,12.0,0.,12.0,0.,12.0
1979-07-15 21:52:00.900 ,4,1,0.,12.0,0.,12.0,0.,12.0,0.,12.0
1979-07-15 21:52:12.900 ,4,1,0.,12.0,0.,12.0,0.,12.0,0.,12.0
1979-07-15 21:52:24.900 ,4,0,0.,12.0,0.,12.0,0.,12.0,0.,12.0
1979-07-15 21:52:36.900 ,4,0,0.,12.0,0.,12.0,0.,12.0,0.,12.0
1979-07-15 21:52:48.900 ,5,1,0.,12.0,0.,12.0,0.,12.0,0.,12.0
1979-07-15 21:53:00.900 ,5,1,0.,12.0,0.,12.0,0.,12.0,0.,12.0
1979-07-15 21:53:12.900 ,5,0,0.,12.0,0.,12.0,0.,12.0,0.,12.0
1979-07-15 21:53:24.900 ,5,0,0.,12.0,0.,12.0,0.,12.0,0.,12.0
1979-07-15 21:53:36.900 ,6,1,0.,12.0,0.,12.0,0.,12.0,0.,12.0
1979-07-15 21:53:48.900 ,6,1,0.,12.0,0.,12.0,0.,12.0,0.,12.0
1979-07-15 21:54:00.900 ,6,0,0.,12.0,0.,12.0,0.,12.0,0.,12.0
1979-07-15 21:54:12.900 ,6,0,0.,12.0,0.,12.0,0.,12.0,0.,12.0
1979-07-15 21:54:24.900 ,7,0,0.,12.0,0.,12.0,0.,12.0,0.,12.0
1979-07-15 21:54:36.900 ,7,0,0.,12.0,0.,12.0,0.,12.0,0.,12.0
1979-07-15 21:54:48.900 ,7,0,0.,12.0,0.,12.0,0.,12.0,0.,12.0
1979-07-15 21:55:00.900 ,7,0,0.,12.0,0.,12.0,0.,12.0,0.,12.0
1979-07-15 21:55:12.900 ,4,1,0.,12.0,0.,12.0,0.,12.0,0.,12.0
1979-07-15 21:55:24.900 ,4,1,0.,12.0,0.,12.0,0.,12.0,0.,12.0
1979-07-15 21:55:36.900 ,0,1,0.,12.0,0.,12.0,0.,12.0,0.,12.0
1979-07-15 21:55:48.900 ,0,1,0.,12.0,0.,12.0,0.,12.0,0.,12.0
1979-07-15 21:56:00.900 ,3,1,0.,12.0,0.,12.0,0.,12.0,0.,12.0
1979-07-15 21:56:12.900 ,3,1,0.,12.0,0.,12.0,0.,12.0,0.,12.0
1979-07-15 21:56:24.900 ,7,1,0.,12.0,0.,12.0,0.,12.0,0.,12.0
1979-07-15 21:56:36.900 ,7,1,0.,12.0,0.,12.0,0.,12.0,0.,12.0
1979-07-15 21:56:48.900 ,4,1,0.,12.0,0.,12.0,0.,12.0,0.,12.0
1979-07-15 21:57:00.900 ,4,1,0.,12.0,0.,12.0,0.,12.0,0.,12.0
1979-07-15 21:57:12.900 ,0,1,0.,12.0,0.,12.0,0.,12.0,0.,12.0
1979-07-15 21:57:24.900 ,0,1,0.,12.0,0.,12.0,0.,12.0,0.,12.0
1979-07-15 21:57:36.900 ,3,1,0.,12.0,0.,12.0,0.,12.0,0.,12.0
1979-07-15 21:57:48.900 ,3,1,0.,12.0,0.,12.0,0.,12.0,0.,12.0
1979-07-15 21:58:00.900 ,7,1,0.,12.0,0.,12.0,0.,12.0,0.,12.0
1979-07-15 21:58:12.900 ,7,1,0.,12.0,0.,12.0,0.,12.0,0.,12.0
1979-07-15 21:58:24.900 ,4,1,0.,12.0,0.,12.0,0.,12.0,0.,12.0
1979-07-15 21:58:36.900 ,4,1,0.,12.0,0.,12.0,0.,12.0,0.,12.0
1979-07-15 21:58:48.900 ,0,1,0.,12.0,0.,12.0,0.,12.0,0.,12.0
1979-07-15 21:59:00.900 ,0,1,0.,12.0,0.,12.0,0.,12.0,0.,12.0
1979-07-15 21:59:12.900 ,3,1,0.,12.0,0.,12.0,0.,12.0,0.,12.0
1979-07-15 21:59:24.900 ,3,1,0.,12.0,0.,12.0,0.,12.0,0.,12.0
1979-07-15 21:59:36.900 ,7,1,0.,12.0,0.,12.0,0.,12.0,0.,12.0
1979-07-15 21:59:48.900 ,7,1,0.,12.0,0.,12.0,0.,12.0,0.,12.0
1979-07-15 22:00:00.900 ,4,1,0.,12.0,0.,12.0,0.,12.0,0.,12.0
1979-07-15 22:00:12.900 ,4,1,0.,12.0,0.,12.0,0.,12.0,0.,12.0
1979-07-15 22:00:24.900 ,0,1,0.,12.0,0.,12.0,0.,12.0,0.,12.0
1979-07-15 22:00:36.900 ,0,1,0.,12.0,0.,12.0,0.,12.0,0.,12.0
1979-07-15 22:00:48.900 ,3,1,0.,12.0,0.,12.0,0.,12.0,0.,12.0
1979-07-15 22:01:00.900 ,3,1,0.,12.0,0.,12.0,0.,12.0,0.,12.0
1979-07-15 22:01:12.900 ,7,1,0.,12.0,0.,12.0,0.,12.0,0.,12.0
1979-07-15 22:01:24.900 ,7,1,0.,12.0,0.,12.0,0.,12.0,0.,12.0
1979-07-15 22:01:36.900 ,4,1,0.,12.0,0.,12.0,0.,12.0,0.,12.0
1979-07-15 22:01:48.900 ,4,1,0.,12.0,0.,12.0,0.,12.0,0.,12.0
1979-07-15 22:02:00.900 ,0,1,0.,12.0,0.,12.0,0.,12.0,0.,12.0
1979-07-15 22:02:12.900 ,0,1,0.,12.0,0.,12.0,0.,12.0,0.,12.0
1979-07-15 22:02:24.900 ,3,1,0.,12.0,0.,12.0,0.,12.0,0.,12.0
1979-07-15 22:02:36.900 ,3,1,0.,12.0,0.,12.0,0.,12.0,0.,12.0
1979-07-15 22:02:48.900 ,7,1,0.,12.0,0.,12.0,0.,12.0,0.,12.0
1979-07-15 22:03:00.900 ,7,1,0.,12.0,0.,12.0,0.,12.0,0.,12.0
1979-07-15 22:03:12.900 ,4,1,0.,12.0,0.,12.0,0.,12.0,0.,12.0
1979-07-15 22:03:24.900 ,4,1,0.,12.0,0.,12.0,0.,12.0,0.,12.0
1979-07-15 22:03:36.900 ,0,1,0.,12.0,0.,12.0,0.,12.0,0.,12.0
1979-07-15 22:03:48.900 ,0,1,0.,12.0,0.,12.0,0.,12.0,0.,12.0
1979-07-15 22:04:00.900 ,3,1,0.,12.0,0.,12.0,0.,12.0,0.,12.0
1979-07-15 22:04:12.900 ,3,1,0.,12.0,0.,12.0,0.,12.0,0.,12.0
1979-07-15 22:04:24.900 ,7,1,0.,12.0,0.,12.0,0.,12.0,0.,12.0
1979-07-15 22:04:36.900 ,7,1,0.,12.0,0.,12.0,0.,12.0,0.,12.0
1979-07-15 22:04:48.900 ,4,1,0.,12.0,0.,12.0,0.,12.0,0.,12.0
1979-07-15 22:05:00.900 ,4,1,0.,12.0,0.,12.0,0.,12.0,0.,12.0
1979-07-15 22:05:12.900 ,0,1,0.,12.0,0.,12.0,0.,12.0,0.,12.0
1979-07-15 22:05:24.900 ,0,1,0.,12.0,0.,12.0,0.,12.0,0.,12.0
1979-07-15 22:05:36.900 ,0,0,0.,12.0,0.,12.0,0.,12.0,0.,12.0
1979-07-15 22:05:48.900 ,0,0,0.,12.0,0.,12.0,0.,12.0,0.,12.0
1979-07-15 22:06:00.900 ,0,0,0.,12.0,0.,12.0,0.,12.0,0.,12.0
1979-07-15 22:06:12.900 ,0,0,0.,12.0,0.,12.0,0.,12.0,0.,12.0
1979-07-15 22:06:24.900 ,5,1,0.,12.0,0.,12.0,0.,12.0,0.,12.0
1979-07-15 22:06:36.900 ,5,1,0.,12.0,0.,12.0,0.,12.0,0.,12.0
1979-07-15 22:06:48.900 ,5,0,0.,12.0,0.,12.0,0.,12.0,0.,12.0
1979-07-15 22:07:00.900 ,5,0,0.,12.0,0.,12.0,0.,12.0,0.,12.0
1979-07-15 22:07:12.900 ,4,1,0.,12.0,0.,12.0,0.,12.0,0.,12.0
1979-07-15 22:07:24.900 ,4,1,0.,12.0,0.,12.0,0.,12.0,0.,12.0
1979-07-15 22:07:36.900 ,4,0,0.,12.0,0.,12.0,0.,12.0,0.,12.0
1979-07-15 22:07:48.900 ,4,0,0.,12.0,0.,12.0,0.,12.0,0.,12.0
1979-07-15 22:08:00.900 ,3,1,0.,12.0,0.,12.0,0.,12.0,0.,12.0
1979-07-15 22:08:12.900 ,3,1,0.,12.0,0.,12.0,0.,12.0,0.,12.0
1979-07-15 22:08:24.900 ,0,0,0.,12.0,0.,12.0,0.,12.0,0.,12.0
1979-07-15 22:08:36.900 ,0,0,0.,12.0,0.,12.0,0.,12.0,0.,12.0
1979-07-15 22:08:48.900 ,2,1,0.,12.0,0.,12.0,0.,12.0,0.,12.0
1979-07-15 22:09:00.900 ,2,1,0.,12.0,0.,12.0,0.,12.0,0.,12.0
1979-07-15 22:09:12.900 ,2,0,0.,12.0,0.,12.0,0.,12.0,0.,12.0
1979-07-15 22:09:24.900 ,2,0,0.,12.0,0.,12.0,0.,12.0,0.,12.0
1979-07-15 22:09:36.900 ,1,1,0.,12.0,0.,12.0,0.,12.0,0.,12.0
1979-07-15 22:09:48.900 ,1,1,0.,12.0,0.,12.0,0.,12.0,0.,12.0
1979-07-15 22:10:00.900 ,1,0,0.,12.0,0.,12.0,0.,12.0,0.,12.0
1979-07-15 22:10:12.900 ,1,0,0.,12.0,0.,12.0,0.,12.0,0.,12.0
1979-07-15 22:10:24.900 ,0,1,0.,12.0,0.,12.0,0.,12.0,0.,12.0
1979-07-15 22:10:36.900 ,0,1,0.,12.0,0.,12.0,0.,12.0,0.,12.0
1979-07-15 22:10:48.900 ,0,0,0.,12.0,0.,12.0,0.,12.0,0.,12.0
1979-07-15 22:11:00.900 ,0,0,0.,12.0,0.,12.0,0.,12.0,0.,12.0
1979-07-15 22:11:12.900 ,0,1,0.,12.0,0.,12.0,0.,12.0,0.,12.0
1979-07-15 22:11:24.900 ,0,1,0.,12.0,0.,12.0,0.,12.0,0.,12.0
1979-07-15 22:11:36.900 ,0,0,0.,12.0,0.,12.0,0.,12.0,0.,12.0
1979-07-15 22:11:48.900 ,0,0,0.,12.0,0.,12.0,0.,12.0,0.,12.0
1979-07-15 22:12:00.900 ,1,1,0.,12.0,0.,12.0,0.,12.0,0.,12.0
1979-07-15 22:12:12.900 ,1,1,0.,12.0,0.,12.0,0.,12.0,0.,12.0
1979-07-15 22:12:24.900 ,1,0,0.,12.0,0.,12.0,0.,12.0,0.,12.0
1979-07-15 22:12:36.900 ,1,0,0.,12.0,0.,12.0,0.,12.0,0.,12.0
1979-07-15 22:12:48.900 ,2,1,0.,12.0,0.,12.0,0.,12.0,0.,12.0
1979-07-15 22:13:00.900 ,2,1,0.,12.0,0.,12.0,0.,12.0,0.,12.0
1979-07-15 22:13:12.900 ,2,0,0.,12.0,0.,12.0,0.,12.0,0.,12.0
1979-07-15 22:13:24.900 ,2,0,0.,12.0,0.,12.0,0.,12.0,0.,12.0
1979-07-15 22:13:36.900 ,3,1,0.,12.0,0.,12.0,0.,12.0,0.,12.0
1979-07-15 22:13:48.900 ,3,1,0.,12.0,0.,12.0,0.,12.0,0.,12.0
1979-07-15 22:14:00.900 ,3,0,0.,12.0,0.,12.0,0.,12.0,0.,12.0
1979-07-15 22:14:12.900 ,3,0,0.,12.0,0.,12.0,0.,12.0,0.,12.0
1979-07-15 22:14:24.900 ,4,1,0.,12.0,0.,12.0,0.,12.0,0.,12.0
1979-07-15 22:14:36.900 ,4,1,0.,12.0,0.,12.0,0.,12.0,0.,12.0
1979-07-15 22:14:48.900 ,4,0,0.,12.0,0.,12.0,0.,12.0,0.,12.0
1979-07-15 22:15:00.900 ,4,0,0.,12.0,0.,12.0,0.,12.0,0.,12.0
1979-07-15 22:15:12.900 ,5,1,0.,12.0,0.,12.0,0.,12.0,0.,12.0
1979-07-15 22:15:24.900 ,5,1,0.,12.0,0.,12.0,0.,12.0,0.,12.0
1979-07-15 22:15:36.900 ,0,0,0.,12.0,0.,12.0,0.,12.0,0.,12.0
1979-07-15 22:15:48.900 ,0,0,,0,,0,,0,,0
1979-07-15 22:16:00.900 ,6,1,0.,12.0,0.,12.0,0.,12.0,0.,12.0
1979-07-15 22:16:12.900 ,6,1,0.,12.0,0.,12.0,0.,12.0,0.,12.0
1979-07-15 22:16:24.900 ,6,0,0.,12.0,0.,12.0,0.,12.0,0.,12.0
1979-07-15 22:16:36.900 ,6,0,0.,12.0,0.,12.0,0.,12.0,0.,12.0
1979-07-15 22:16:48.900 ,7,1,0.,12.0,0.,12.0,0.,12.0,0.,12.0
1979-07-15 22:17:00.900 ,7,1,0.,12.0,0.,12.0,0.,12.0,0.,12.0
1979-07-15 22:17:36.900 ,7,1,0.,12.0,0.,12.0,0.,12.0,0.,12.0
1979-07-15 22:17:48.900 ,7,1,0.,12.0,0.,12.0,0.,12.0,0.,12.0